Location: Adamsville Division (historical)
(35.2923°N, 88.5089°W)
Time: 01:13:16
(UTC+00:00)

Daily predictions for brighter satellites

Satellite Brightness Start Highest point End
(mag) Time Altitude Azimuth Time Altitude Azimuth Time Altitude Azimuth
STARLINK-1208 4.2 01:21:12 10° SSW 01:24:58 35° SE 01:28:46 10° ENE
STARLINK-1217 2.9 01:22:14 10° SW 01:25:19 84° NW 01:28:26 10° NE
STARLINK-1229 3.0 01:23:09 10° SW 01:26:14 82° NW 01:29:21 10° NE
Cosmos 1707 Rocket 4.2 01:22:01 10° SSW 01:26:17 61° W 01:30:33 10° N
STARLINK-1180 4.0 01:22:13 10° NW 01:26:18 55° NE 01:30:21 10° ESE
STARLINK-1270 3.0 01:24:01 10° SW 01:27:06 80° NW 01:30:13 10° NE
STARLINK-1189 3.1 01:25:51 10° SW 01:28:56 76° NW 01:32:03 10° NE
IUS-1 SRM-2 3.6 01:27:09 10° SW 01:29:02 14° SSW 01:30:22 10° SSE
STARLINK-1188 3.1 01:26:45 10° SW 01:29:49 74° NW 01:32:56 10° NE
STARLINK-1271 4.0 01:26:05 10° SSW 01:29:56 40° SE 01:33:49 10° ENE
STARLINK-1235 3.9 01:27:30 10° WSW 01:30:30 50° NW 01:33:31 10° NE
STARLINK-1187 3.5 01:27:54 10° WSW 01:30:56 59° NW 01:33:58 10° NE
STARLINK-1153 3.8 01:27:09 10° NW 01:31:16 61° NE 01:35:21 10° ESE
STARLINK-1191 3.2 01:29:13 10° SW 01:32:18 68° NW 01:35:23 10° NE
SJ-6B 3.0 01:28:42 10° SSE 01:32:20 47° ENE 01:35:56 10° N
Cosmos 2278 Rocket 3.9 01:30:41 10° ESE 01:32:48 12° E 01:34:55 10° ENE
STARLINK-1221 3.3 01:30:06 10° SW 01:33:10 66° NW 01:36:14 10° NE
STARLINK-1222 3.3 01:30:59 10° SW 01:34:03 65° NW 01:37:09 10° NE
Cosmos 2084 Rocket 3.4 01:30:41 10° SSW 01:34:53 79° ESE 01:39:13 10° NE
STARLINK-1154 3.9 01:30:58 10° SSW 01:34:54 44° SE 01:38:51 10° ENE
Cosmos 1184 Rocket 4.1 01:31:55 10° NNW 01:34:57 40° W 01:37:58 10° SSW
STARLINK-1214 3.4 01:31:55 10° SW 01:34:58 63° NW 01:38:03 10° NE
Abrixas rocket 4.4 01:32:53 10° W 01:35:24 25° NNW 01:37:56 10° NNE
USA 186 0.9 01:33:48 10° SSE 01:36:06 83° ENE 01:38:33 10° N
STARLINK-1132 3.7 01:32:07 10° NW 01:36:15 68° NE 01:40:18 10° SE
ASTEX 1 3.9 01:32:05 10° SSE 01:36:37 40° ENE 01:41:10 10° N
STARLINK-1197 3.8 01:35:52 10° SSW 01:39:51 50° SE 01:43:52 10° NE
Cosmos 1862 Rocket 3.5 01:35:26 10° S 01:39:52 81° E 01:44:17 10° N
STARLINK-1177 3.7 01:37:05 10° NW 01:41:14 76° NE 01:45:05 12° SE
Cosmos 1844 Rocket 2.7 01:36:29 10° SSW 01:42:09 89° ESE 01:47:51 10° NNE
Cosmos 1733 Rocket 3.0 01:38:45 10° N 01:43:07 71° E 01:47:26 10° SSE
Meteor 1-11 Rocket 3.8 01:38:17 10° N 01:43:56 85° W 01:49:28 10° S
STARLINK-1198 3.7 01:40:45 10° SSW 01:44:47 56° SE 01:48:51 10° NE
Okean 1-7 4.1 01:42:33 10° SE 01:46:02 25° E 01:49:31 10° NE
STARLINK-1167 3.6 01:42:04 10° NW 01:46:13 84° NE 01:49:53 13° SE
Hubble Space Telescope 1.8 01:45:04 10° SW 01:48:38 28° S 01:51:31 14° ESE
STARLINK-1199 3.6 01:45:43 10° SW 01:49:47 63° SE 01:53:53 10° NE
STARLINK-1168 3.6 01:47:02 10° NW 01:51:11 87° SW 01:54:39 14° SE
STARLINK-1210 3.5 01:50:38 10° SW 01:54:44 71° SE 01:58:52 10° NE
Resurs 01 Rocket 2.6 01:51:57 13° SE 01:55:12 30° ENE 01:59:06 10° N
STARLINK-1164 3.7 01:52:02 10° NW 01:56:10 78° SW 01:59:27 16° SE
NOSS 2-3 (E) 3.6 01:53:59 10° SSW 01:57:59 50° ESE 02:02:23 10° NE
MOS 1 Rocket 3.2 01:54:00 10° N 01:58:28 81° W 02:02:44 10° SSW
SPOT 3 Rocket 3.7 01:53:39 10° SSE 01:58:41 59° ENE 02:03:44 10° N
STARLINK-1219 3.5 01:55:35 10° SW 01:59:43 80° SE 02:03:51 10° NE
BREEZE-M DEB (TANK) 4.2 01:58:40 10° NNW 02:00:35 21° NNE 02:02:09 13° E
STARLINK-1182 3.7 01:57:01 10° NW 02:01:08 70° SW 02:04:14 17° SE
STARLINK-1211 3.6 02:00:32 10° SW 02:04:40 88° SE 02:08:49 10° NE
STARLINK-1163 3.9 02:02:00 10° NW 02:06:06 62° SW 02:09:01 18° SSE
Cosmos 1844 4.0 02:00:47 10° SSW 02:06:22 72° WNW 02:12:05 10° NNE
STARLINK-1245 3.7 02:05:32 10° SW 02:09:40 83° NW 02:13:49 10° NE
H-2A R/B 3.5 02:06:27 10° SSW 02:10:54 34° W 02:15:28 10° NNW
STARLINK-1172 4.0 02:07:01 10° NW 02:11:04 55° SW 02:13:49 19° SSE
Cosmos 2034 Rocket 4.0 02:07:33 10° N 02:13:44 70° E 02:19:14 13° SSE
Cosmos 1703 Rocket 3.5 02:09:29 10° S 02:13:45 63° E 02:18:02 10° NNE
Cosmos 1624 Rocket 4.2 02:09:18 10° S 02:14:23 50° ESE 02:19:31 10° NNE
STARLINK-1233 3.8 02:10:30 10° SW 02:14:38 75° NW 02:18:46 10° NE
STARLINK-1145 4.2 02:12:01 10° WNW 02:16:02 49° SW 02:18:35 20° SSE
Cosmos 1743 2.9 02:13:26 10° N 02:17:09 51° E 02:19:04 25° SSE
NOSS 2-3 (D) 3.4 02:13:46 10° SSW 02:17:52 77° ESE 02:22:27 10° NE
STARLINK-1204 4.0 02:15:31 10° SW 02:19:38 67° NW 02:23:45 10° NE
STARLINK-1161 4.4 02:17:01 10° WNW 02:20:57 44° SW 02:23:20 21° SSE
Cosmos 1607 4.0 02:15:44 10° NNW 02:22:10 90° WSW 02:26:48 20° SSE
Cosmos 1816 Rocket 4.4 02:17:52 10° S 02:24:02 85° E 02:30:10 10° N
STARLINK-1238 4.2 02:20:30 10° WSW 02:24:34 60° NW 02:28:41 10° NE
STARLINK-1162 4.5 02:24:21 10° NNW 02:28:15 39° NE 02:30:12 24° E
USA 229 DEB 4.5 02:22:03 10° SW 02:28:19 52° NW 02:34:54 10° NNE
Cosmos 1371 Rocket 3.9 02:23:03 10° SSW 02:28:19 80° ESE 02:33:34 10° NNE
USA 229 4.5 02:22:10 10° SW 02:28:26 52° NW 02:35:01 10° NNE
Cosmos 389 Rocket 3.1 02:26:05 10° SSW 02:29:27 55° W 02:32:52 10° N
STARLINK-1201 4.4 02:25:32 10° WSW 02:29:35 54° NW 02:33:39 10° NE
Cosmos 614 Rocket 4.1 02:26:13 10° N 02:31:13 57° ENE 02:33:42 28° SE
Cosmos 1908 Rocket 3.5 02:27:16 10° N 02:31:44 88° W 02:34:36 22° S
Cosmos 1975 3.3 02:30:39 10° N 02:34:30 41° E 02:35:28 35° ESE
Aureole 1 Rocket 4.1 02:30:36 10° N 02:34:40 36° ENE 02:36:37 27° ESE
Resurs 1-3 4.1 02:33:06 16° S 02:36:28 57° W 02:40:48 10° NNW
NOSS 3-1 (A) 3.7 02:32:16 10° SW 02:37:31 61° NW 02:43:30 10° NNE
STARLINK-1159 4.2 02:34:15 10° NW 02:38:16 48° NE 02:39:47 32° E
Okean 1 3.9 02:35:02 10° SSW 02:38:58 57° W 02:42:58 10° N
ERS-1 Rocket 4.3 02:40:27 21° E 02:41:44 24° ENE 02:45:41 10° NNE
STARLINK-1171 4.0 02:39:13 10° NW 02:43:16 53° NE 02:44:35 36° E
Cosmos 2082 Rocket 4.1 02:44:27 10° NNE 02:47:44 15° NE 02:49:50 13° ENE
Spot 2 Rocket 3.7 02:45:52 35° SE 02:47:44 55° ENE 02:52:39 10° N
Delta 128 4.5 02:42:49 10° WSW 02:48:13 39° S 02:49:14 35° SSE
STARLINK-1155 3.9 02:44:10 10° NW 02:48:16 59° NE 02:49:22 42° E
Iridium 51 4.3 02:46:22 31° S 02:48:20 89° E 02:52:18 10° N
Cosmos 1356 3.2 02:47:53 10° N 02:51:20 87° E 02:51:44 68° SSE
STARLINK-1166 3.7 02:49:07 10° NW 02:53:14 65° NE 02:54:08 49° E
Cosmos 1634 Rocket 4.0 02:49:20 10° N 02:55:38 66° E 02:58:25 34° SSE
Cosmos 1833 Rocket 3.8 02:51:33 10° N 02:56:22 28° ENE 02:57:56 25° E
Cosmos 2056 Rocket 3.8 02:51:55 10° SSW 02:56:59 64° WNW 03:02:04 10° N
STARLINK-1165 3.6 02:54:05 10° NW 02:58:13 73° NE 02:58:55 57° ESE
SEDSat Delta rocket 4.0 02:52:22 10° W 02:59:02 60° S 03:01:27 38° SE
STARLINK-1169 3.5 02:59:03 10° NW 03:03:12 81° NE 03:03:42 67° ESE
Meteor 2-9 Rocket 4.0 02:58:12 10° N 03:03:37 86° E 03:05:32 41° S
Cosmos 44 Rocket 4.0 03:00:57 10° NW 03:05:39 48° WSW 03:07:23 34° SSW
Cosmos 1023 Rocket 4.4 03:01:30 10° NNW 03:06:43 74° ENE 03:08:03 50° SE
STARLINK-1178 3.4 03:04:01 10° NW 03:08:10 90° NE 03:08:29 76° SE
GOES 2 Rocket 4.4 03:02:14 10° W 03:08:41 37° SSW 03:09:25 36° S
IGS 5A 3.3 03:10:01 71° SE 03:10:23 79° ENE 03:14:33 10° N
STARLINK-1120 3.4 03:09:00 10° NW 03:13:09 81° SW 03:13:16 80° SSW
Terra 3.0 03:14:02 28° ENE 03:14:09 28° ENE 03:18:11 10° NNE
Okean 3 3.5 03:13:52 57° SSW 03:14:41 80° W 03:19:00 10° N
Cosmos 2278 Rocket 2.3 03:10:43 11° SSW 03:16:07 73° WNW 03:21:49 10° NNE
CREW DRAGON DEMO-1 DEB 4.4 03:15:01 10° NW 03:17:09 34° N 03:17:09 34° N
STARLINK-1131 3.6 03:13:58 10° NW 03:18:02 73° SW 03:18:02 73° SW
Lacrosse 5 4.0 03:15:54 10° N 03:19:09 17° NNE 03:21:33 13° ENE
USA 245 3.5 03:21:31 62° W 03:21:31 62° W 03:24:52 10° NNW
Cosmos 1300 Rocket 3.7 03:18:29 10° N 03:22:41 58° ENE 03:22:41 58° ENE
STARLINK-1190 3.8 03:18:56 10° NW 03:22:47 63° WSW 03:22:47 63° WSW
Meteor 1-4 Rocket 4.4 03:23:36 22° WSW 03:24:43 26° WNW 03:27:41 10° NNW
Cosmos 2221 Rocket 3.9 03:24:22 49° SW 03:25:22 65° W 03:29:52 10° N
Cosmos 1452 Rocket 3.4 03:26:55 60° S 03:27:52 82° ESE 03:33:10 10° NNE
STARLINK-1129 4.0 03:23:58 10° NW 03:27:36 54° WSW 03:27:36 54° WSW
Hubble Space Telescope 3.0 03:25:47 10° WSW 03:26:51 16° WSW 03:26:51 16° WSW
Resurs 01 Rocket 3.8 03:29:31 15° SW 03:31:41 20° W 03:34:59 10° NW
Intercosmos 24 4.4 03:28:35 10° N 03:31:18 49° N 03:31:18 49° N
Cosmos 1674 Rocket 4.1 03:33:06 47° NE 03:33:06 47° NE 03:36:28 10° NNE
STARLINK-1134 4.3 03:29:00 10° NW 03:32:25 46° W 03:32:25 46° W
Meteor 1-12 Rocket 4.1 03:28:08 10° N 03:33:49 83° E 03:34:42 65° SSE
Cosmos 1420 Rocket 4.5 03:31:38 27° SW 03:34:24 58° WNW 03:39:31 10° N
Cosmos 371 Rocket 3.2 03:34:23 73° SW 03:34:50 84° WNW 03:39:43 10° NNE
Cosmos 407 Rocket 4.5 03:32:20 10° NNW 03:37:19 41° WSW 03:38:42 34° SW
Cosmos 1378 Rocket 4.5 03:40:42 39° NE 03:40:42 39° NE 03:43:46 10° NNE
ATLAS 3B CENTAUR R/B 3.9 03:36:29 10° SW 03:43:02 28° SSW 03:43:02 28° SSW
SPOT 1/Viking Rocket 3.9 03:45:02 51° SW 03:45:46 56° W 03:50:51 10° NNW
SPOT 5 2.9 03:49:22 85° SW 03:49:26 85° WSW 03:54:41 10° NNW
Meteor 1-23 Rocket 4.1 03:49:57 73° ESE 03:50:03 73° E 03:55:44 10° NNE
COSMOS 2406 3.5 03:47:59 10° NNW 03:53:37 56° WSW 03:54:17 52° SW
SL-4 R/B 4.4 03:55:19 10° N 03:55:53 13° N 03:55:53 13° N
Okean 2 Rocket 4.1 03:55:49 10° NNW 03:59:43 40° W 03:59:43 40° W
Cosmos 1741 Rocket 4.4 04:01:23 10° N 04:05:54 54° NE 04:05:54 54° NE
BREEZE-M DEB (TANK) 4.3 03:59:18 10° NW 04:09:24 43° NNE 04:10:58 34° ENE
Cosmos 972 Rocket 4.2 04:11:48 83° SW 04:12:02 86° WNW 04:18:30 10° NNE
Nadezhda 4 Rocket 3.9 04:11:47 72° SW 04:12:18 78° W 04:18:28 10° N
Cosmos 2297 3.7 04:12:54 77° NNE 04:12:54 77° NNE 04:18:12 10° NNE
ISS -0.6 04:12:00 10° N 04:13:01 13° NNE 04:13:01 13° NNE
Okean 1 Rocket 4.1 04:12:34 10° N 04:15:37 43° N 04:15:37 43° N
ERS-1 Rocket 4.1 04:20:26 34° W 04:20:26 34° W 04:24:51 10° NNW
Cosmos 1850 Rocket 4.3 04:15:07 10° NNW 04:19:43 66° N 04:19:43 66° N
Cosmos 1110 Rocket 4.4 04:24:14 58° N 04:24:14 58° N 04:28:24 10° NNE
SeaSat 1 3.0 04:22:56 10° NNE 04:27:22 56° NW 04:27:22 56° NW
Cosmos 2082 Rocket 2.5 04:26:41 10° NNW 04:31:41 64° WNW 04:31:41 64° WNW
Cosmos 1833 Rocket 3.8 04:35:15 10° NW 04:39:38 33° W 04:39:38 33° W
Cosmos 2369 Rocket 3.5 04:44:14 31° NE 04:44:14 31° NE 04:47:25 10° NNE
BREEZE-M DEB (TANK) 4.3 04:49:20 50° NW 04:49:40 51° NNW 04:59:54 10° NE
Cosmos 1092 Rocket 4.2 04:50:48 61° WNW 04:50:48 61° WNW 04:56:42 10° N
Terra 3.7 04:52:55 23° WNW 04:52:55 23° WNW 04:55:43 10° NW
Cosmos 1943 Rocket 2.9 04:53:31 47° NNE 04:53:31 47° NNE 04:57:25 10° NNE
ATLAS 2AS CENTAUR R/B 3.8 04:58:03 38° E 04:58:03 38° E 05:03:52 10° NE
Lacrosse 5 3.1 04:57:41 10° NW 05:00:44 37° NW 05:00:44 37° NW
USA 238 DEB 4.5 05:10:23 10° NNW 05:17:21 47° NE 05:18:34 43° ENE
Cosmos 1655 Rocket 4.4 05:22:16 57° NE 05:22:16 57° NE 05:27:18 10° N
S3M 4.4 05:21:37 10° N 05:26:39 54° NE 05:26:39 54° NE
ATLAS CENTAUR R/B 4.4 05:45:24 11° NE 05:45:24 11° NE 05:45:36 10° NE
Cosmos 1553 Rocket 4.4 05:38:58 10° NNW 05:44:06 57° NW 05:44:06 57° NW
USA 215 3.5 05:55:04 60° WNW 05:55:04 60° WNW 06:00:21 10° NW
Cosmos 2266 Rocket 4.5 06:14:24 52° NW 06:14:24 52° NW 06:19:21 10° N
NOSS 3-2 (C) 4.2 06:07:25 10° NNW 06:15:15 72° ENE 06:16:38 61° ESE
NOSS 3-4 (A) 3.9 06:19:42 55° NNW 06:19:42 55° NNW 06:25:03 10° NNE
NOSS 3-4 (C) 3.9 06:19:49 55° NNW 06:19:49 55° NNW 06:25:09 10° NNE
Cosmos 2369 Rocket 4.0 06:26:00 22° WNW 06:26:14 22° WNW 06:30:34 10° N
ATLAS 3B R/B 3.9 06:23:57 10° NNW 06:30:12 36° NE 06:34:07 21° ESE
CENTAUR R/B 3.2 06:26:00 10° NNW 06:34:23 80° ENE 06:36:06 62° SE
CZ-2D R/B 4.0 06:31:08 10° NE 06:34:13 21° E 06:34:13 21° E
Cosmos 2098 Rocket 4.4 06:36:17 61° NW 06:36:17 61° NW 06:42:50 10° N
Meteor 2-5 Rocket 4.3 06:42:40 54° N 06:42:40 54° N 06:46:55 10° N
Resurs 1-4 Rocket 3.7 06:39:44 10° NE 06:43:26 27° E 06:43:26 27° E
ATLAS 2AS CENTAUR R/B 3.8 06:45:27 38° W 06:47:27 44° NW 06:55:02 10° NNE
GEOS 3 Rocket 4.2 06:51:55 52° NE 06:51:55 52° NE 06:56:46 10° NNW
SL-08 R/B 4.5 06:59:58 80° NE 06:59:58 80° NE 07:05:59 10° N
COSMOS 2455 3.7 07:04:08 39° WNW 07:04:08 39° WNW 07:09:44 10° NNE
CZ-4C R/B 4.1 07:06:15 16° E 07:06:15 16° E 07:08:39 10° ENE
IRAS Rocket 4.5 07:06:53 66° NNW 07:06:53 66° NNW 07:11:38 10° NNW
SL-4 R/B 4.0 07:11:24 28° NNW 07:11:31 28° NNW 07:15:38 10° NNE
Cosmos 1386 Rocket 4.4 07:16:10 76° E 07:16:10 76° E 07:22:12 10° N
ATLAS CENTAUR R/B 3.6 07:21:34 21° NNW 07:21:34 21° NNW 07:23:57 10° N
CZ-4B R/B 3.7 07:30:01 10° NNE 07:35:01 64° E 07:35:01 64° E
FALCON 9 R/B 3.5 07:32:38 41° W 07:35:44 87° S 07:59:57 10° E
Cosmos 2297 Rocket 3.6 07:34:06 10° N 07:39:13 34° ENE 07:44:13 10° SE
RESURS DK-1 4.3 07:42:47 22° NW 07:42:47 22° NW 07:45:05 10° N
Nadezhda 1 Rocket 3.8 07:37:38 10° N 07:43:49 77° W 07:44:15 73° SW
GP-B 4.0 07:41:41 10° NNE 07:45:55 42° E 07:45:55 42° E
IRS-1D 3.7 07:51:15 10° NNE 07:56:33 67° ESE 07:57:11 61° SE
SL-16 R/B 2.4 07:56:22 64° SSW 07:57:13 74° WSW 08:03:23 10° NNW
ATLAS CENTAUR R/B 4.1 07:57:31 10° NNW 08:00:51 33° NE 08:07:58 10° ESE
Timation 2 Rocket 4.0 07:58:05 10° NNW 08:04:08 55° WSW 08:04:08 55° WSW
Cosmos 1763 Rocket 3.3 08:03:51 75° SSE 08:04:14 81° ESE 08:09:21 10° NNE
Meteor 2-1 Rocket 4.0 08:01:29 10° NNW 08:06:58 72° W 08:07:29 67° SW
Cosmos 1758 Rocket 3.6 08:08:01 72° NNW 08:08:01 72° NNW 08:11:59 10° N
USA 234 4.3 08:05:07 10° ENE 08:10:55 33° SE 08:13:10 27° SSE
Cosmos 1697 Rocket 2.8 08:10:09 53° SSE 08:11:23 69° ESE 08:17:01 10° NNE
IRS-P3 4.2 08:09:13 10° NNE 08:14:32 69° ESE 08:15:57 48° SSE
Cosmos 2227 Rocket 2.7 08:09:22 10° NNW 08:14:59 59° ENE 08:20:30 10° SE
CZ-2D R/B 2.8 08:10:26 10° N 08:15:14 38° WNW 08:15:32 37° WNW
ADEOS II 2.1 08:11:22 10° NNE 08:16:38 79° ESE 08:17:53 53° S
USA 81 4.4 08:19:00 45° W 08:19:10 45° W 08:24:13 10° N
ATLAS 3B R/B 3.0 08:14:30 10° NW 08:20:55 42° WSW 08:21:15 42° WSW
Cosmos 1953 Rocket 3.6 08:23:20 64° SSE 08:23:57 80° E 08:28:25 10° N
Resurs 1-4 Rocket 3.1 08:19:24 10° N 08:23:59 31° WNW 08:24:31 30° W
CENTAUR R/B 4.4 08:18:21 10° WNW 08:23:12 22° W 08:23:12 22° W
Cosmos 2181 Rocket 4.0 08:19:26 10° N 08:25:54 86° E 08:29:37 28° S
SJ 16-02 1.3 08:21:28 10° NNW 08:25:54 83° ENE 08:26:56 53° SSE
ARIANE 5 R/B 2.9 08:21:23 10° NNE 08:26:22 57° E 08:28:16 35° SSE
Cosmos 468 Rocket 4.5 08:32:55 39° W 08:33:43 42° WNW 08:38:35 10° N
Cosmos 1898 Rocket 3.5 08:28:31 10° NNW 08:33:52 82° ENE 08:37:43 19° SSE
Cosmos 1656 4.4 08:34:04 33° W 08:35:25 38° WNW 08:40:41 10° N
STARLINK-43 4.1 08:35:34 39° SE 08:35:34 39° SE 08:39:00 10° ENE
Cosmos 1570 Rocket 3.9 08:34:45 47° SSW 08:36:22 83° WNW 08:41:42 10° NNE
Cosmos 2208 Rocket 3.9 08:37:50 42° SSW 08:39:38 86° ESE 08:44:56 10° NNE
ERS-2 3.4 08:37:30 16° SE 08:40:03 40° ENE 08:43:30 10° N
Cosmos 1328 4.3 08:41:34 42° WNW 08:41:34 42° WNW 08:45:15 10° N
OAO 1 4.4 08:38:54 30° W 08:41:38 75° S 08:47:08 10° ESE
IDEFIX/ARIANE 42P 3.7 08:36:43 10° NNE 08:41:39 39° E 08:45:41 14° SSE
Cosmos 1937 Rocket 3.7 08:38:26 10° NNW 08:43:41 71° ENE 08:48:56 10° SSE
Cosmos 2369 3.8 08:43:42 39° SW 08:45:40 63° WNW 08:51:17 10° NNE
Cosmos 2360 4.1 08:46:30 36° SSW 08:48:53 81° WNW 08:54:36 10° NNE
Meteor 2-10 Rocket 4.0 08:44:46 10° NNW 08:49:35 38° W 08:50:24 36° WSW
CSL-04 DEB 4.5 08:50:01 23° SSE 08:52:35 84° ENE 08:56:54 10° NNW
CZ-4C R/B 2.5 08:51:25 33° WSW 08:53:10 47° NW 08:58:35 10° NNE
Cosmos 1814 Rocket 4.0 08:52:02 34° SSW 08:54:23 78° WNW 08:59:45 10° NNE
Alouette 2 Rocket 4.3 08:52:22 10° NNW 08:57:17 35° W 08:57:53 34° WSW
Cosmos 2285 Rocket 4.0 08:51:47 10° NNW 08:58:11 87° ENE 09:04:29 10° SSE
Meteor 1-28 Rocket 3.2 08:58:43 21° SSE 09:01:12 81° ENE 09:04:59 10° N
Cosmos 1980 Rocket 2.1 09:00:48 28° SSW 09:03:49 80° WNW 09:09:28 10° NNE
Cosmos 858 Rocket 4.4 08:59:14 10° NNW 09:04:29 72° WSW 09:09:44 10° S
Cosmos 1455 3.9 09:01:56 10° NW 09:03:49 18° WNW 09:03:49 18° WNW
Cosmos 2219 4.0 09:03:10 10° NW 09:08:01 30° WSW 09:09:29 26° SW
Cosmos 1892 4.2 09:07:01 10° SSE 09:10:31 35° E 09:14:02 10° NNE
CZ-4C R/B 3.5 09:08:35 10° SSE 09:12:06 63° ENE 09:15:40 10° N
CZ-2D R/B 3.5 09:08:03 10° N 09:12:10 65° WNW 09:14:20 27° SSW
STARLINK-33 4.4 09:11:10 23° SSE 09:12:16 29° SE 09:15:06 10° ENE
Cosmos 540 Rocket 3.9 09:11:43 27° SW 09:14:06 44° WNW 09:19:01 10° N
STARLINK-1206 4.4 09:13:59 10° NW 09:18:03 54° NE 09:22:06 10° ESE
Cosmos 1869 4.2 09:15:48 10° N 09:19:35 48° E 09:23:18 10° SSE
Cosmos 1400 Rocket 3.0 09:16:25 10° NNW 09:20:27 55° W 09:23:30 17° S
STARLINK-66 3.9 09:19:21 24° S 09:20:45 37° SE 09:23:44 10° ENE
Nadezhda 3 Rocket 4.1 09:16:36 10° N 09:22:54 80° E 09:29:14 10° S
STARLINK-1205 4.2 09:18:56 10° NW 09:23:02 60° NE 09:27:07 10° ESE
Cosmos 2297 Rocket 3.0 09:18:21 10° NW 09:23:04 28° WSW 09:25:53 19° SW
STARLINK-1212 3.2 09:20:51 10° WNW 09:23:47 41° SW 09:26:43 10° SSE
Cosmos-2242 4.4 09:20:57 10° NW 09:24:02 20° W 09:24:34 19° W
STARLINK-1105 3.2 09:21:19 10° WNW 09:24:14 40° SW 09:27:09 10° SSE
STARLINK-1247 3.2 09:22:15 10° WNW 09:25:11 39° SW 09:28:06 10° SSE
STARLINK-1227 3.2 09:22:43 10° WNW 09:25:37 38° SW 09:28:30 10° SSE
Cosmos 2221 2.7 09:21:57 10° N 09:26:17 75° E 09:30:37 10° SSE
STARLINK-1226 3.3 09:23:33 10° WNW 09:26:28 38° SW 09:29:23 10° SSE
IRIDIUM 106 4.3 09:22:06 12° S 09:26:59 76° W 09:32:13 10° N
Cosmos 2278 4.3 09:23:49 21° WSW 09:27:12 41° WNW 09:32:31 10° N
Cosmos 2082 3.7 09:21:44 10° NNW 09:27:15 57° WSW 09:32:43 10° S
PSLV R/B 4.5 09:23:17 10° NNE 09:27:20 45° E 09:31:21 10° S
STARLINK-1215 3.3 09:24:31 10° WNW 09:27:25 37° SW 09:30:20 10° SSE
Cosmos 841 Rocket 4.5 09:24:51 20° WSW 09:27:34 31° WNW 09:32:13 10° N
STARLINK-1218 4.0 09:23:52 10° NW 09:28:00 67° NE 09:32:06 10° SE
Cosmos 2341 Rocket 4.5 09:21:54 10° S 09:28:11 65° E 09:34:30 10° NNE
COBE Rocket 4.2 09:24:52 13° S 09:29:02 48° W 09:33:52 10° NNW
STARLINK-1217 3.4 09:26:18 10° WNW 09:29:11 35° SW 09:32:03 10° SSE
STARLINK-1229 3.4 09:27:14 10° WNW 09:30:06 34° SW 09:32:58 10° SSE
BREEZE M DEB (TANK) 3.8 09:27:13 10° NW 09:30:37 85° NE 09:42:18 10° SE
STARLINK-1270 3.5 09:28:06 10° WNW 09:30:58 33° SW 09:33:49 10° SSE
STARLINK-75 3.7 09:29:58 20° SSW 09:31:50 43° SE 09:34:55 10° ENE
SL-08 R/B 4.2 09:30:05 19° SW 09:32:35 29° W 09:36:40 10° NW
STARLINK-1189 3.5 09:29:58 10° WNW 09:32:48 32° SW 09:35:36 10° SSE
STARLINK-1254 3.8 09:28:50 10° NW 09:32:58 74° NE 09:37:06 10° SE
Cosmos 372 Rocket 4.0 09:27:58 10° NNW 09:33:07 87° ENE 09:38:16 10° SSE
STARLINK-1188 3.6 09:30:53 10° WNW 09:33:41 31° SW 09:36:29 10° SSE
Cosmos 2322 Rocket 3.4 09:29:27 10° S 09:34:40 40° ESE 09:39:53 10° NE
STARLINK-1187 3.8 09:32:42 14° WNW 09:34:43 25° SW 09:37:21 10° S
STARLINK-1191 3.7 09:33:23 10° WNW 09:36:07 29° SW 09:38:50 10° SSE
STARLINK-1221 3.7 09:34:15 10° WNW 09:36:58 28° SW 09:39:41 10° SSE
STARLINK-1222 3.7 09:35:11 10° WNW 09:37:53 27° SW 09:40:34 10° S
STARLINK-1231 3.7 09:33:50 10° NW 09:37:58 83° NE 09:42:07 10° SE
Cosmos 2263 Rocket 3.9 09:33:23 10° N 09:38:33 37° ENE 09:43:40 10° SE
STARLINK-1214 3.8 09:36:06 10° WNW 09:38:46 27° SW 09:41:26 10° S
STARLINK 1040 3.5 09:37:55 20° W 09:39:09 32° NW 09:41:32 10° NNE
Cosmos 1315 Rocket 2.8 09:36:56 10° N 09:40:51 82° E 09:44:46 10° S
CZ-2C R/B 3.2 09:37:32 10° N 09:41:02 41° WNW 09:43:44 16° SW
STARLINK-22 3.9 09:39:33 15° SSW 09:41:53 41° SE 09:44:55 10° ENE
In-Cosmos 22 Rocket 4.2 09:36:07 10° S 09:41:54 81° W 09:47:35 10° N
STARLINK-1232 3.6 09:38:49 10° NW 09:42:58 89° SW 09:47:06 10° SE
STARLINK-1301 3.8 09:41:07 15° SSW 09:43:40 44° SE 09:46:53 10° ENE
STARLINK-1307 4.1 09:42:20 13° SSW 09:45:02 39° SE 09:48:12 10° ENE
PAYLOAD A 4.2 09:40:51 10° NNE 09:45:30 64° ESE 09:50:12 10° S
H-2A R/B 2.6 09:42:02 10° SSW 09:46:00 38° W 09:50:06 10° NNW
STARLINK-1290 4.0 09:44:35 13° SSW 09:47:21 42° SE 09:50:34 10° ENE
STARLINK-1208 3.5 09:43:46 10° NW 09:47:54 80° SW 09:52:02 10° SE
STARLINK-1297 3.9 09:46:40 12° SSW 09:49:31 44° SE 09:52:45 10° ENE
SAR-Lupe-1 4.2 09:47:19 10° SSE 09:50:50 76° ENE 09:54:22 10° N
STARLINK-1271 3.5 09:48:46 10° NW 09:52:54 72° SW 09:57:00 10° SE
STARLINK-26 3.2 09:50:48 15° SW 09:53:35 71° NW 09:57:01 10° NE
deb Chang Zheng 4 3.5 09:49:28 10° N 09:53:46 72° WNW 09:58:01 10° SSW
USA 234 3.6 09:47:39 10° NE 09:54:02 59° NW 10:00:26 10° WSW
Cosmos 2058 3.1 09:50:02 10° SSW 09:54:05 52° W 09:58:11 10° N
STARLINK-80 3.5 09:52:07 12° SW 09:55:31 71° SE 09:59:18 10° NE
ADEOS II 4.1 09:53:56 10° NW 09:55:36 11° WNW 09:57:15 10° W
Cosmos 2150 Rocket 3.9 09:52:08 10° NNW 09:57:17 74° WSW 10:02:24 10° S
Lacrosse 4 Rocket 1.6 09:53:40 10° NW 09:57:48 48° WSW 10:01:48 10° S
STARLINK-1154 3.6 09:53:46 10° NW 09:57:52 64° SW 10:01:57 10° SE
Cosmos 2227 Rocket 3.7 09:55:12 10° WNW 09:58:26 16° W 10:01:39 10° SW
Centaur D-1AR AC-40 3.6 09:56:38 10° S 09:58:28 13° SSE 10:00:55 10° SE
STARLINK-1317 3.2 09:58:10 11° SW 10:01:25 75° SE 10:04:50 10° NE
SL-16 R/B 2.3 09:55:56 10° SSW 10:01:35 88° ESE 10:07:17 10° NNE
Cosmos 1408 2.5 09:57:56 10° S 10:01:39 81° W 10:05:22 10° N
STARLINK-1197 3.7 09:58:46 10° NW 10:02:50 56° SW 10:06:52 10° SSE
STARLINK-42 3.0 10:01:10 11° SW 10:04:10 66° NW 10:07:21 10° NE
CZ-4B R/B 1.2 10:01:17 10° SSE 10:04:20 83° ENE 10:07:22 10° N
CZ-3 R/B 4.0 09:40:33 12° SW 10:04:34 40° S 10:12:24 10° ESE
ARIANE 5 R/B 4.4 10:02:14 10° NNW 10:04:56 15° WNW 10:07:35 10° W
STARLINK-1198 3.8 10:03:45 10° NW 10:07:46 50° SW 10:11:46 10° SSE
STARLINK-1283 3.3 10:04:19 10° SW 10:08:00 79° NW 10:11:42 10° NE
Cosmos 2218 Rocket 4.1 10:04:33 10° S 10:10:50 87° E 10:17:14 10° N
NOSS 2-1 (C) 3.0 10:08:28 10° SW 10:11:58 67° WNW 10:15:22 10° NNE
MSX 4.3 10:06:58 10° N 10:12:22 43° WNW 10:17:45 10° SW
STARLINK-1199 3.9 10:08:48 10° WNW 10:12:45 45° SW 10:16:42 10° SSE
